Regional Weather Roundup
Issued by NWS Glasgow, MT

Current Version | Previous Version | Text Only | Print | Product List | Glossary On
Versions: 1 2 3 4 5 6 7 8 9 10 11 12 13 14 15 16 17 18 19 20 21 22 23 24 25 26 27 28 29 30 31 32 33 34 35 36 37 38 39 40 41 42 43 44 45 46 47 48 49 50
000
ASUS45 KGGW 301215
RWRGGW
HOURLY REGIONAL WEATHER ROUNDUP FOR NORTHEAST MONTANA
NATIONAL WEATHER SERVICE GLASGOW MONTANA
600 AM MDT FRI SEP 30 2022

NOTE: "FAIR" INDICATES FEW OR NO CLOUDS BELOW 12,000 FEET WITH NO
SIGNIFICANT WEATHER AND/OR OBSTRUCTIONS TO VISISBILITY.

NORTHEAST MONTANA


CITY           SKY/WX    TMP DP  RH WIND       PRES   REMARKS
GLASGOW        MOCLDY    55  42  61 N5        29.97R
6HR MIN TEMP:  55; 6HR MAX TEMP:  62;

WOLF POINT     PTCLDY    47  42  83 E7        29.98R
JORDAN           N/A     61  49  64 W3        29.97R
WINNETT          N/A     55  46  71 W2          N/A
SIDNEY         PTCLDY    52  46  80 NW7       29.96R
GLENDIVE       PTCLDY    50  45  83 N8        29.95R
MALTA            N/A     59  46  62 NE3G12      N/A

FORT PECK REPORTS


CITY           SKY/WX    TMP DP  RH WIND       PRES   REMARKS
FORT PECK        N/A     59  46  62 N3          N/A
THE PINES        N/A     57  42  57 N6          N/A

SOUTHEAST MONTANA


CITY           SKY/WX    TMP DP  RH WIND       PRES   REMARKS
BILLINGS       CLOUDY    56  45  66 N8        30.03R
MILES CITY     MOCLDY    56  45  66 N7        29.93R
BAKER          PTCLDY    50  44  80 E6        29.93R
LIVINGSTON     CLOUDY    51  41  68 SW7       30.10S

CENTRAL MONTANA


CITY           SKY/WX    TMP DP  RH WIND       PRES   REMARKS
HAVRE          MOCLDY    55  54  96 SW8       30.03R
LEWISTOWN      CLOUDY    50  46  86 W7        30.09R
GREAT FALLS    MOCLDY    47  45  93 SW7       30.11R
CUT BANK       PTCLDY    47  46  97 NW9       30.11R
HELENA         CLOUDY    50  47  89 W6        30.13R
BUTTE          CLOUDY    45  42  89 CALM      30.16S
BOZEMAN        MOCLDY    48  43  82 W5        30.13R

WESTERN MONTANA


CITY           SKY/WX    TMP DP  RH WIND       PRES   REMARKS
MISSOULA       PTCLDY    45  41  86 W3        30.16R
KALISPELL      NOT AVBL

NORTH DAKOTA


CITY           SKY/WX    TMP DP  RH WIND       PRES   REMARKS
WILLISTON      SUNNY     53  43  68 NE12      29.99R
DICKINSON      CLEAR     48  43  82 NE9       29.92R
MINOT          CLEAR     45  41  86 N8        29.99S
BISMARCK       CLEAR     50  46  86 NE7       29.93S

SOUTHERN SASKATCHEWAN


CITY           SKY/WX    TMP DP  RH WIND       PRES   REMARKS
REGINA         MOCLDY    57  46  67 E13G23    30.07R
ESTEVAN        CLEAR    N/A N/A N/A E10G17    30.02R
SWIFT CURRENT  PTCLDY    50  48  93 W8        30.04R




USA.gov is the U.S. government's official web portal to all federal, state and local government web resources and services.